Year,Month,Day,Hour,Minute,Value (Times are PST for temperature in C)
2014,10,06,00,00,15.20
2014,10,06,00,01,15.10
2014,10,06,00,02,15.10
2014,10,06,00,03,15.00
2014,10,06,00,04,15.00
2014,10,06,00,05,15.00
2014,10,06,00,06,14.90
2014,10,06,00,07,14.90
2014,10,06,00,08,14.90
2014,10,06,00,09,14.80
2014,10,06,00,10,14.80
2014,10,06,00,11,14.70
2014,10,06,00,12,14.60
2014,10,06,00,13,14.50
2014,10,06,00,14,14.40
2014,10,06,00,15,14.20
2014,10,06,00,16,14.10
2014,10,06,00,17,14.10
2014,10,06,00,18,14.00
2014,10,06,00,19,14.00
2014,10,06,00,20,13.90
2014,10,06,00,21,13.90
2014,10,06,00,22,13.90
2014,10,06,00,23,13.80
2014,10,06,00,24,13.80
2014,10,06,00,25,13.80
2014,10,06,00,26,13.80
2014,10,06,00,27,13.80
2014,10,06,00,28,13.80
2014,10,06,00,29,13.80
2014,10,06,00,30,13.80
2014,10,06,00,31,13.80
2014,10,06,00,32,13.80
2014,10,06,00,33,13.80
2014,10,06,00,34,13.80
2014,10,06,00,35,13.80
2014,10,06,00,36,13.80
2014,10,06,00,37,13.80
2014,10,06,00,38,13.80
2014,10,06,00,39,13.80
2014,10,06,00,40,13.80
2014,10,06,00,41,13.70
2014,10,06,00,42,13.70
2014,10,06,00,43,13.70
2014,10,06,00,44,13.60
2014,10,06,00,45,13.60
2014,10,06,00,46,13.60
2014,10,06,00,47,13.60
2014,10,06,00,48,13.60
2014,10,06,00,49,13.60
2014,10,06,00,50,13.60
2014,10,06,00,51,13.60
2014,10,06,00,52,13.60
2014,10,06,00,53,13.60
2014,10,06,00,54,13.60
2014,10,06,00,55,13.60
2014,10,06,00,56,13.60
2014,10,06,00,57,13.60
2014,10,06,00,58,13.60
2014,10,06,00,59,13.60
2014,10,06,01,00,13.60
2014,10,06,01,01,13.50
2014,10,06,01,02,13.50
2014,10,06,01,03,13.50
2014,10,06,01,04,13.50
2014,10,06,01,05,13.50
2014,10,06,01,06,13.50
2014,10,06,01,07,13.40
2014,10,06,01,08,13.40
2014,10,06,01,09,13.40
2014,10,06,01,10,13.30
2014,10,06,01,11,13.20
2014,10,06,01,12,13.00
2014,10,06,01,13,12.90
2014,10,06,01,14,12.80
2014,10,06,01,15,12.70
2014,10,06,01,16,12.70
2014,10,06,01,17,12.60
2014,10,06,01,18,12.60
2014,10,06,01,19,12.50
2014,10,06,01,20,12.50
2014,10,06,01,21,12.40
2014,10,06,01,22,12.40
2014,10,06,01,23,12.40
2014,10,06,01,24,12.40
2014,10,06,01,25,12.40
2014,10,06,01,26,12.40
2014,10,06,01,27,12.40
2014,10,06,01,28,12.40
2014,10,06,01,29,12.40
2014,10,06,01,30,12.40
2014,10,06,01,31,12.40
2014,10,06,01,32,12.40
2014,10,06,01,33,12.40
2014,10,06,01,34,12.40
2014,10,06,01,35,12.40
2014,10,06,01,36,12.40
2014,10,06,01,37,12.40
2014,10,06,01,38,12.40
2014,10,06,01,39,12.40
2014,10,06,01,40,12.40
2014,10,06,01,41,12.40
2014,10,06,01,42,12.40
2014,10,06,01,43,12.40
2014,10,06,01,44,12.30
2014,10,06,01,45,12.30
2014,10,06,01,46,12.30
2014,10,06,01,47,12.30
2014,10,06,01,48,12.30
2014,10,06,01,49,12.30
2014,10,06,01,50,12.30
2014,10,06,01,51,12.30
2014,10,06,01,52,12.30
2014,10,06,01,53,12.30
2014,10,06,01,54,12.30
2014,10,06,01,55,12.30
2014,10,06,01,56,12.30
2014,10,06,01,57,12.30
2014,10,06,01,58,12.30
2014,10,06,01,59,12.30
2014,10,06,02,00,12.30
2014,10,06,02,01,12.20
2014,10,06,02,02,12.20
2014,10,06,02,03,12.30
2014,10,06,02,04,12.30
2014,10,06,02,05,12.30
2014,10,06,02,06,12.30
2014,10,06,02,07,12.30
2014,10,06,02,08,12.30
2014,10,06,02,09,12.30
2014,10,06,02,10,12.30
2014,10,06,02,11,12.30
2014,10,06,02,12,12.30
2014,10,06,02,13,12.30
2014,10,06,02,14,12.30
2014,10,06,02,15,12.30
2014,10,06,02,16,12.30
2014,10,06,02,17,12.30
2014,10,06,02,18,12.30
2014,10,06,02,19,12.40
2014,10,06,02,20,12.40
2014,10,06,02,21,12.40
2014,10,06,02,22,12.40
2014,10,06,02,23,12.40
2014,10,06,02,24,12.40
2014,10,06,02,25,12.40
2014,10,06,02,26,12.40
2014,10,06,02,27,12.40
2014,10,06,02,28,12.40
2014,10,06,02,29,12.40
2014,10,06,02,30,12.40
2014,10,06,02,31,12.40
2014,10,06,02,32,12.40
2014,10,06,02,33,12.40
2014,10,06,02,34,12.50
2014,10,06,02,35,12.50
2014,10,06,02,36,12.50
2014,10,06,02,37,12.60
2014,10,06,02,38,12.60
2014,10,06,02,39,12.60
2014,10,06,02,40,12.70
2014,10,06,02,41,12.70
2014,10,06,02,42,12.70
2014,10,06,02,43,12.70
2014,10,06,02,44,12.70
2014,10,06,02,45,12.70
2014,10,06,02,46,12.60
2014,10,06,02,47,12.60
2014,10,06,02,48,12.60
2014,10,06,02,49,12.60
2014,10,06,02,50,12.60
2014,10,06,02,51,12.60
2014,10,06,02,52,12.60
2014,10,06,02,53,12.60
2014,10,06,02,54,12.60
2014,10,06,02,55,12.60
2014,10,06,02,56,12.60
2014,10,06,02,57,12.60
2014,10,06,02,58,12.60
2014,10,06,02,59,12.60
2014,10,06,03,00,12.60
2014,10,06,03,01,12.60
2014,10,06,03,02,12.60
2014,10,06,03,03,12.60
2014,10,06,03,04,12.60
2014,10,06,03,05,12.60
2014,10,06,03,06,12.60
2014,10,06,03,07,12.60
2014,10,06,03,08,12.60
2014,10,06,03,09,12.60
2014,10,06,03,10,12.60
2014,10,06,03,11,12.60
2014,10,06,03,12,12.60
2014,10,06,03,13,12.60
2014,10,06,03,14,12.60
2014,10,06,03,15,12.60
2014,10,06,03,16,12.60
2014,10,06,03,17,12.60
2014,10,06,03,18,12.60
2014,10,06,03,19,12.60
2014,10,06,03,20,12.60
2014,10,06,03,21,12.60
2014,10,06,03,22,12.60
2014,10,06,03,23,12.60
2014,10,06,03,24,12.60
2014,10,06,03,25,12.70
2014,10,06,03,26,12.70
2014,10,06,03,27,12.80
2014,10,06,03,28,12.80
2014,10,06,03,29,12.80
2014,10,06,03,30,12.80
2014,10,06,03,31,12.80
2014,10,06,03,32,12.80
2014,10,06,03,33,12.80
2014,10,06,03,34,12.90
2014,10,06,03,35,12.90
2014,10,06,03,36,12.90
2014,10,06,03,37,12.90
2014,10,06,03,38,13.00
2014,10,06,03,39,13.00
2014,10,06,03,40,13.10
2014,10,06,03,41,13.10
2014,10,06,03,42,13.10
2014,10,06,03,43,13.00
2014,10,06,03,44,13.00
2014,10,06,03,45,13.10
2014,10,06,03,46,13.10
2014,10,06,03,47,13.10
2014,10,06,03,48,13.10
2014,10,06,03,49,13.10
2014,10,06,03,50,13.10
2014,10,06,03,51,13.10
2014,10,06,03,52,13.00
2014,10,06,03,53,13.00
2014,10,06,03,54,13.00
2014,10,06,03,55,12.90
2014,10,06,03,56,12.90
2014,10,06,03,57,12.90
2014,10,06,03,58,12.90
2014,10,06,03,59,12.90
2014,10,06,04,00,12.90
2014,10,06,04,01,12.80
2014,10,06,04,02,12.80
2014,10,06,04,03,12.80
2014,10,06,04,04,12.80
2014,10,06,04,05,12.70
2014,10,06,04,06,12.70
2014,10,06,04,07,12.70
2014,10,06,04,08,12.70
2014,10,06,04,09,12.70
2014,10,06,04,10,12.70
2014,10,06,04,11,12.70
2014,10,06,04,12,12.70
2014,10,06,04,13,12.70
2014,10,06,04,14,12.70
2014,10,06,04,15,12.70
2014,10,06,04,16,12.70
2014,10,06,04,17,12.70
2014,10,06,04,18,12.70
2014,10,06,04,19,12.70
2014,10,06,04,20,12.80
2014,10,06,04,21,12.80
2014,10,06,04,22,12.80
2014,10,06,04,23,12.90
2014,10,06,04,24,13.00
2014,10,06,04,25,13.00
2014,10,06,04,26,13.10
2014,10,06,04,27,13.10
2014,10,06,04,28,13.10
2014,10,06,04,29,13.10
2014,10,06,04,30,13.10
2014,10,06,04,31,13.10
2014,10,06,04,32,13.10
2014,10,06,04,33,13.10
2014,10,06,04,34,13.10
2014,10,06,04,35,13.10
2014,10,06,04,36,13.10
2014,10,06,04,37,13.10
2014,10,06,04,38,13.20
2014,10,06,04,39,13.20
2014,10,06,04,40,13.20
2014,10,06,04,41,13.20
2014,10,06,04,42,13.20
2014,10,06,04,43,13.20
2014,10,06,04,44,13.10
2014,10,06,04,45,13.10
2014,10,06,04,46,13.10
2014,10,06,04,47,13.10
2014,10,06,04,48,13.10
2014,10,06,04,49,13.10
2014,10,06,04,50,13.10
2014,10,06,04,51,13.10
2014,10,06,04,52,13.10
2014,10,06,04,53,13.10
2014,10,06,04,54,13.20
2014,10,06,04,55,13.20
2014,10,06,04,56,13.20
2014,10,06,04,57,13.20
2014,10,06,04,58,13.30
2014,10,06,04,59,13.30
2014,10,06,05,00,13.30
2014,10,06,05,01,13.40
2014,10,06,05,02,13.40
2014,10,06,05,03,13.40
2014,10,06,05,04,13.40
2014,10,06,05,05,13.40
2014,10,06,05,06,13.40
2014,10,06,05,07,13.40
2014,10,06,05,08,13.30
2014,10,06,05,09,13.30
2014,10,06,05,10,13.20
2014,10,06,05,11,13.20
2014,10,06,05,12,13.20
2014,10,06,05,13,13.20
2014,10,06,05,14,13.10
2014,10,06,05,15,13.10
2014,10,06,05,16,13.10
2014,10,06,05,17,13.10
2014,10,06,05,18,13.10
2014,10,06,05,19,13.10
2014,10,06,05,20,13.10
2014,10,06,05,21,13.10
2014,10,06,05,22,13.10
2014,10,06,05,23,13.10
2014,10,06,05,24,13.10
2014,10,06,05,25,13.00
2014,10,06,05,26,13.00
2014,10,06,05,27,12.90
2014,10,06,05,28,12.90
2014,10,06,05,29,12.90
2014,10,06,05,30,12.80
2014,10,06,05,31,12.80
2014,10,06,05,32,12.70
2014,10,06,05,33,12.60
2014,10,06,05,34,12.60
2014,10,06,05,35,12.50
2014,10,06,05,36,12.40
2014,10,06,05,37,12.40
2014,10,06,05,38,12.30
2014,10,06,05,39,12.30
2014,10,06,05,40,12.30
2014,10,06,05,41,12.30
2014,10,06,05,42,12.30
2014,10,06,05,43,12.30
2014,10,06,05,44,12.30
2014,10,06,05,45,12.30
2014,10,06,05,46,12.30
2014,10,06,05,47,12.30
2014,10,06,05,48,12.30
2014,10,06,05,49,12.30
2014,10,06,05,50,12.40
2014,10,06,05,51,12.40
2014,10,06,05,52,12.40
2014,10,06,05,53,12.40
2014,10,06,05,54,12.50
2014,10,06,05,55,12.50
2014,10,06,05,56,12.50
2014,10,06,05,57,12.50
2014,10,06,05,58,12.50
2014,10,06,05,59,12.40
2014,10,06,06,00,12.40
2014,10,06,06,01,12.30
2014,10,06,06,02,12.30
2014,10,06,06,03,12.20
2014,10,06,06,04,12.20
2014,10,06,06,05,12.20
2014,10,06,06,06,12.10
2014,10,06,06,07,12.10
2014,10,06,06,08,12.10
2014,10,06,06,09,12.00
2014,10,06,06,10,12.00
2014,10,06,06,11,12.00
2014,10,06,06,12,12.00
2014,10,06,06,13,11.90
2014,10,06,06,14,11.90
2014,10,06,06,15,11.90
2014,10,06,06,16,11.90
2014,10,06,06,17,11.90
2014,10,06,06,18,11.80
2014,10,06,06,19,11.80
2014,10,06,06,20,11.80
2014,10,06,06,21,11.80
2014,10,06,06,22,11.80
2014,10,06,06,23,11.80
2014,10,06,06,24,11.80
2014,10,06,06,25,11.80
2014,10,06,06,26,11.80
2014,10,06,06,27,11.80
2014,10,06,06,28,11.70
2014,10,06,06,29,11.70
2014,10,06,06,30,11.70
2014,10,06,06,31,11.70
2014,10,06,06,32,11.70
2014,10,06,06,33,11.70
2014,10,06,06,34,11.70
2014,10,06,06,35,11.70
2014,10,06,06,36,11.70
2014,10,06,06,37,11.70
2014,10,06,06,38,11.70
2014,10,06,06,39,11.70
2014,10,06,06,40,11.70
2014,10,06,06,41,11.70
2014,10,06,06,42,11.70
2014,10,06,06,43,11.70
2014,10,06,06,44,11.70
2014,10,06,06,45,11.70
2014,10,06,06,46,11.70
2014,10,06,06,47,11.70
2014,10,06,06,48,11.60
2014,10,06,06,49,11.60
2014,10,06,06,50,11.60
2014,10,06,06,51,11.60
2014,10,06,06,52,11.60
2014,10,06,06,53,11.60
2014,10,06,06,54,11.60
2014,10,06,06,55,11.60
2014,10,06,06,56,11.60
2014,10,06,06,57,11.60
2014,10,06,06,58,11.60
2014,10,06,06,59,11.60
2014,10,06,07,00,11.60
2014,10,06,07,01,11.50
2014,10,06,07,02,11.50
2014,10,06,07,03,11.50
2014,10,06,07,04,11.50
2014,10,06,07,05,11.50
2014,10,06,07,06,11.50
2014,10,06,07,07,11.60
2014,10,06,07,08,11.60
2014,10,06,07,09,11.60
2014,10,06,07,10,11.60
2014,10,06,07,11,11.60
2014,10,06,07,12,11.70
2014,10,06,07,13,11.70
2014,10,06,07,14,11.70
2014,10,06,07,15,11.70
2014,10,06,07,16,11.70
2014,10,06,07,17,11.70
2014,10,06,07,18,11.70
2014,10,06,07,19,11.70
2014,10,06,07,20,11.70
2014,10,06,07,21,11.70
2014,10,06,07,22,11.60
2014,10,06,07,23,11.60
2014,10,06,07,24,11.60
2014,10,06,07,25,11.60
2014,10,06,07,26,11.60
2014,10,06,07,27,11.60
2014,10,06,07,28,11.60
2014,10,06,07,29,11.60
2014,10,06,07,30,11.60
2014,10,06,07,31,11.60
2014,10,06,07,32,11.60
2014,10,06,07,33,11.60
2014,10,06,07,34,11.60
2014,10,06,07,35,11.60
2014,10,06,07,36,11.60
2014,10,06,07,37,11.70
2014,10,06,07,38,11.70
2014,10,06,07,39,11.70
2014,10,06,07,40,11.70
2014,10,06,07,41,11.70
2014,10,06,07,42,11.80
2014,10,06,07,43,11.80
2014,10,06,07,44,11.80
2014,10,06,07,45,11.80
2014,10,06,07,46,11.80
2014,10,06,07,47,11.80
2014,10,06,07,48,11.90
2014,10,06,07,49,11.90
2014,10,06,07,50,11.90
2014,10,06,07,51,11.80
2014,10,06,07,52,11.80
2014,10,06,07,53,11.80
2014,10,06,07,54,11.80
2014,10,06,07,55,11.80
2014,10,06,07,56,11.80
2014,10,06,07,57,11.80
2014,10,06,07,58,11.80
2014,10,06,07,59,11.90
2014,10,06,08,00,11.90
2014,10,06,08,01,11.90
2014,10,06,08,02,11.90
2014,10,06,08,03,11.80
2014,10,06,08,04,11.80
2014,10,06,08,05,11.90
2014,10,06,08,06,11.90
2014,10,06,08,07,11.90
2014,10,06,08,08,11.90
2014,10,06,08,09,11.90
2014,10,06,08,10,12.00
2014,10,06,08,11,12.00
2014,10,06,08,12,12.10
2014,10,06,08,13,12.10
2014,10,06,08,14,12.10
2014,10,06,08,15,12.10
2014,10,06,08,16,12.10
2014,10,06,08,17,12.20
2014,10,06,08,18,12.20
2014,10,06,08,19,12.20
2014,10,06,08,20,12.20
2014,10,06,08,21,12.30
2014,10,06,08,22,12.30
2014,10,06,08,23,12.30
2014,10,06,08,24,12.40
2014,10,06,08,25,12.40
2014,10,06,08,26,12.40
2014,10,06,08,27,12.40
2014,10,06,08,28,12.50
2014,10,06,08,29,12.50
2014,10,06,08,30,12.50
2014,10,06,08,31,12.60
2014,10,06,08,32,12.60
2014,10,06,08,33,12.70
2014,10,06,08,34,12.70
2014,10,06,08,35,12.70
2014,10,06,08,36,12.80
2014,10,06,08,37,12.80
2014,10,06,08,38,12.90
2014,10,06,08,39,12.90
2014,10,06,08,40,13.00
2014,10,06,08,41,13.00
2014,10,06,08,42,13.00
2014,10,06,08,43,13.10
2014,10,06,08,44,13.10
2014,10,06,08,45,13.10
2014,10,06,08,46,13.10
2014,10,06,08,47,13.20
2014,10,06,08,48,13.30
2014,10,06,08,49,13.30
2014,10,06,08,50,13.30
2014,10,06,08,51,13.40
2014,10,06,08,52,13.50
2014,10,06,08,53,13.60
2014,10,06,08,54,13.60
2014,10,06,08,55,13.70
2014,10,06,08,56,13.80
2014,10,06,08,57,13.90
2014,10,06,08,58,14.00
2014,10,06,08,59,14.10
2014,10,06,09,00,14.20
2014,10,06,09,01,14.30
2014,10,06,09,02,14.40
2014,10,06,09,03,14.50
2014,10,06,09,04,14.60
2014,10,06,09,05,14.70
2014,10,06,09,06,14.80
2014,10,06,09,07,14.80
2014,10,06,09,08,14.80
2014,10,06,09,09,14.90
2014,10,06,09,10,14.90
2014,10,06,09,11,15.00
2014,10,06,09,12,15.10
2014,10,06,09,13,15.20
2014,10,06,09,14,15.20
2014,10,06,09,15,15.30
2014,10,06,09,16,15.40
2014,10,06,09,17,15.40
2014,10,06,09,18,15.40
2014,10,06,09,19,15.50
2014,10,06,09,20,15.50
2014,10,06,09,21,15.50
2014,10,06,09,22,15.60
2014,10,06,09,23,15.60
2014,10,06,09,24,15.70
2014,10,06,09,25,15.70
2014,10,06,09,26,15.70
2014,10,06,09,27,15.50
2014,10,06,09,28,15.40
2014,10,06,09,29,15.30
2014,10,06,09,30,15.20
2014,10,06,09,31,15.10
2014,10,06,09,32,15.00
2014,10,06,09,33,14.90
2014,10,06,09,34,14.80
2014,10,06,09,35,14.70
2014,10,06,09,36,14.60
2014,10,06,09,37,14.50
2014,10,06,09,38,14.40
2014,10,06,09,39,14.30
2014,10,06,09,40,14.30
2014,10,06,09,41,14.20
2014,10,06,09,42,14.20
2014,10,06,09,43,14.10
2014,10,06,09,44,14.00
2014,10,06,09,45,14.00
2014,10,06,09,46,14.00
2014,10,06,09,47,14.00
2014,10,06,09,48,14.00
2014,10,06,09,49,14.00
2014,10,06,09,50,14.00
2014,10,06,09,51,14.00
2014,10,06,09,52,14.00
2014,10,06,09,53,14.00
2014,10,06,09,54,14.00
2014,10,06,09,55,14.10
2014,10,06,09,56,14.10
2014,10,06,09,57,14.20
2014,10,06,09,58,14.30
2014,10,06,09,59,14.30
2014,10,06,10,00,14.40
2014,10,06,10,01,14.50
2014,10,06,10,02,14.60
2014,10,06,10,03,14.60
2014,10,06,10,04,14.70
2014,10,06,10,05,14.80
2014,10,06,10,06,14.80
2014,10,06,10,07,14.80
2014,10,06,10,08,14.90
2014,10,06,10,09,15.00
2014,10,06,10,10,15.10
2014,10,06,10,11,15.20
2014,10,06,10,12,15.30
2014,10,06,10,13,15.30
2014,10,06,10,14,15.40
2014,10,06,10,15,15.50
2014,10,06,10,16,15.50
2014,10,06,10,17,15.60
2014,10,06,10,18,15.60
2014,10,06,10,19,15.70
2014,10,06,10,20,15.70
2014,10,06,10,21,15.80
2014,10,06,10,22,15.90
2014,10,06,10,23,15.90
2014,10,06,10,24,16.00
2014,10,06,10,25,16.10
2014,10,06,10,26,16.10
2014,10,06,10,27,16.10
2014,10,06,10,28,16.20
2014,10,06,10,29,16.30
2014,10,06,10,30,16.30
2014,10,06,10,31,16.40
2014,10,06,10,32,16.40
2014,10,06,10,33,16.40
2014,10,06,10,34,16.50
2014,10,06,10,35,16.50
2014,10,06,10,36,16.60
2014,10,06,10,37,16.60
2014,10,06,10,38,16.70
2014,10,06,10,39,16.70
2014,10,06,10,40,16.70
2014,10,06,10,41,16.80
2014,10,06,10,42,16.80
2014,10,06,10,43,16.90
2014,10,06,10,44,17.00
2014,10,06,10,45,17.00
2014,10,06,10,46,17.10
2014,10,06,10,47,17.20
2014,10,06,10,48,17.20
2014,10,06,10,49,17.30
2014,10,06,10,50,17.40
2014,10,06,10,51,17.40
2014,10,06,10,52,17.50
2014,10,06,10,53,17.60
2014,10,06,10,54,17.60
2014,10,06,10,55,17.70
2014,10,06,10,56,17.70
2014,10,06,10,57,17.70
2014,10,06,10,58,17.70
2014,10,06,10,59,17.80
2014,10,06,11,00,17.80
2014,10,06,11,01,17.70
2014,10,06,11,02,17.70
2014,10,06,11,03,17.70
2014,10,06,11,04,17.70
2014,10,06,11,05,17.80
2014,10,06,11,06,17.80
2014,10,06,11,07,17.80
2014,10,06,11,08,17.90
2014,10,06,11,09,18.00
2014,10,06,11,10,18.10
2014,10,06,11,11,18.10
2014,10,06,11,12,18.20
2014,10,06,11,13,18.20
2014,10,06,11,14,18.30
2014,10,06,11,15,18.30
2014,10,06,11,16,18.40
2014,10,06,11,17,18.40
2014,10,06,11,18,18.40
2014,10,06,11,19,18.50
2014,10,06,11,20,18.50
2014,10,06,11,21,18.50
2014,10,06,11,22,18.50
2014,10,06,11,23,18.50
2014,10,06,11,24,18.50
2014,10,06,11,25,18.50
2014,10,06,11,26,18.50
2014,10,06,11,27,18.40
2014,10,06,11,28,18.40
2014,10,06,11,29,18.40
2014,10,06,11,30,18.40
2014,10,06,11,31,18.40
2014,10,06,11,32,18.40
2014,10,06,11,33,18.40
2014,10,06,11,34,18.40
2014,10,06,11,35,18.40
2014,10,06,11,36,18.40
2014,10,06,11,37,18.40
2014,10,06,11,38,18.40
2014,10,06,11,39,18.40
2014,10,06,11,40,18.40
2014,10,06,11,41,18.40
2014,10,06,11,42,18.40
2014,10,06,11,43,18.50
2014,10,06,11,44,18.50
2014,10,06,11,45,18.60
2014,10,06,11,46,18.60
2014,10,06,11,47,18.70
2014,10,06,11,48,18.70
2014,10,06,11,49,18.60
2014,10,06,11,50,18.60
2014,10,06,11,51,18.60
2014,10,06,11,52,18.60
2014,10,06,11,53,18.60
2014,10,06,11,54,18.60
2014,10,06,11,55,18.60
2014,10,06,11,56,18.50
2014,10,06,11,57,18.50
2014,10,06,11,58,18.60
2014,10,06,11,59,18.60
2014,10,06,12,00,18.60
2014,10,06,12,01,18.70
2014,10,06,12,02,18.70
2014,10,06,12,03,18.70
2014,10,06,12,04,18.70
2014,10,06,12,05,18.70
2014,10,06,12,06,18.70
2014,10,06,12,07,18.80
2014,10,06,12,08,18.80
2014,10,06,12,09,18.80
2014,10,06,12,10,18.80
2014,10,06,12,11,18.70
2014,10,06,12,12,18.60
2014,10,06,12,13,18.50
2014,10,06,12,14,18.40
2014,10,06,12,15,18.30
2014,10,06,12,16,18.30
2014,10,06,12,17,18.30
2014,10,06,12,18,18.30
2014,10,06,12,19,18.40
2014,10,06,12,20,18.40
2014,10,06,12,21,18.50
2014,10,06,12,22,18.60
2014,10,06,12,23,18.60
2014,10,06,12,24,18.70
2014,10,06,12,25,18.80
2014,10,06,12,26,18.80
2014,10,06,12,27,18.80
2014,10,06,12,28,18.90
2014,10,06,12,29,18.90
2014,10,06,12,30,18.90
2014,10,06,12,31,18.90
2014,10,06,12,32,18.80
2014,10,06,12,33,18.70
2014,10,06,12,34,18.60
2014,10,06,12,35,18.50
2014,10,06,12,36,18.40
2014,10,06,12,37,18.40
2014,10,06,12,38,18.30
2014,10,06,12,39,18.40
2014,10,06,12,40,18.30
2014,10,06,12,41,18.30
2014,10,06,12,42,18.30
2014,10,06,12,43,18.20
2014,10,06,12,44,18.30
2014,10,06,12,45,18.40
2014,10,06,12,46,18.50
2014,10,06,12,47,18.60
2014,10,06,12,48,18.70
2014,10,06,12,49,18.80
2014,10,06,12,50,18.90
2014,10,06,12,51,19.00
2014,10,06,12,52,19.10
2014,10,06,12,53,19.20
2014,10,06,12,54,19.20
2014,10,06,12,55,19.30
2014,10,06,12,56,19.30
2014,10,06,12,57,19.30
2014,10,06,12,58,19.30
2014,10,06,12,59,19.40
2014,10,06,13,00,19.50
2014,10,06,13,01,19.60
2014,10,06,13,02,19.60
2014,10,06,13,03,19.50
2014,10,06,13,04,19.50
2014,10,06,13,05,19.60
2014,10,06,13,06,19.70
2014,10,06,13,07,19.70
2014,10,06,13,08,19.80
2014,10,06,13,09,19.90
2014,10,06,13,10,19.90
2014,10,06,13,11,19.90
2014,10,06,13,12,19.90
2014,10,06,13,13,19.80
2014,10,06,13,14,19.90
2014,10,06,13,15,19.90
2014,10,06,13,16,20.00
2014,10,06,13,17,20.10
2014,10,06,13,18,20.10
2014,10,06,13,19,20.20
2014,10,06,13,20,20.30
2014,10,06,13,21,20.40
2014,10,06,13,22,20.40
2014,10,06,13,23,20.50
2014,10,06,13,24,20.60
2014,10,06,13,25,20.60
2014,10,06,13,26,20.70
2014,10,06,13,27,20.70
2014,10,06,13,28,20.80
2014,10,06,13,29,20.80
2014,10,06,13,30,20.90
2014,10,06,13,31,20.90
2014,10,06,13,32,20.90
2014,10,06,13,33,20.90
2014,10,06,13,34,21.00
2014,10,06,13,35,21.00
2014,10,06,13,36,21.10
2014,10,06,13,37,21.10
2014,10,06,13,38,21.10
2014,10,06,13,39,21.10
2014,10,06,13,40,21.10
2014,10,06,13,41,21.10
2014,10,06,13,42,21.10
2014,10,06,13,43,21.10
2014,10,06,13,44,21.10
2014,10,06,13,45,21.20
2014,10,06,13,46,21.20
2014,10,06,13,47,21.20
2014,10,06,13,48,21.20
2014,10,06,13,49,21.10
2014,10,06,13,50,20.90
2014,10,06,13,51,20.80
2014,10,06,13,52,20.70
2014,10,06,13,53,20.60
2014,10,06,13,54,20.60
2014,10,06,13,55,20.50
2014,10,06,13,56,20.60
2014,10,06,13,57,20.60
2014,10,06,13,58,20.60
2014,10,06,13,59,20.50
2014,10,06,14,00,20.40
2014,10,06,14,01,20.30
2014,10,06,14,02,20.30
2014,10,06,14,03,20.30
2014,10,06,14,04,20.30
2014,10,06,14,05,20.30
2014,10,06,14,06,20.40
2014,10,06,14,07,20.40
2014,10,06,14,08,20.50
2014,10,06,14,09,20.60
2014,10,06,14,10,20.70
2014,10,06,14,11,20.60
2014,10,06,14,12,20.50
2014,10,06,14,13,20.20
2014,10,06,14,14,19.80
2014,10,06,14,15,19.50
2014,10,06,14,16,19.20
2014,10,06,14,17,19.10
2014,10,06,14,18,19.00
2014,10,06,14,19,18.80
2014,10,06,14,20,18.70
2014,10,06,14,21,18.60
2014,10,06,14,22,18.40
2014,10,06,14,23,18.10
2014,10,06,14,24,17.90
2014,10,06,14,25,17.80
2014,10,06,14,26,17.70
2014,10,06,14,27,17.60
2014,10,06,14,28,17.50
2014,10,06,14,29,17.40
2014,10,06,14,30,17.20
2014,10,06,14,31,17.10
2014,10,06,14,32,17.10
2014,10,06,14,33,17.10
2014,10,06,14,34,17.00
2014,10,06,14,35,16.90
2014,10,06,14,36,16.80
2014,10,06,14,37,16.80
2014,10,06,14,38,16.80
2014,10,06,14,39,16.80
2014,10,06,14,40,16.80
2014,10,06,14,41,16.80
2014,10,06,14,42,16.80
2014,10,06,14,43,16.80
2014,10,06,14,44,16.80
2014,10,06,14,45,16.80
2014,10,06,14,46,16.80
2014,10,06,14,47,16.70
2014,10,06,14,48,16.70
2014,10,06,14,49,16.70
2014,10,06,14,50,16.70
2014,10,06,14,51,16.70
2014,10,06,14,52,16.80
2014,10,06,14,53,16.70
2014,10,06,14,54,16.70
2014,10,06,14,55,16.80
2014,10,06,14,56,16.80
2014,10,06,14,57,16.90
2014,10,06,14,58,16.90
2014,10,06,14,59,16.90
2014,10,06,15,00,17.00
2014,10,06,15,01,17.10
2014,10,06,15,02,17.20
2014,10,06,15,03,17.30
2014,10,06,15,04,17.40
2014,10,06,15,05,17.50
2014,10,06,15,06,17.50
2014,10,06,15,07,17.50
2014,10,06,15,08,17.50
2014,10,06,15,09,17.50
2014,10,06,15,10,17.60
2014,10,06,15,11,17.80
2014,10,06,15,12,17.90
2014,10,06,15,13,17.90
2014,10,06,15,14,18.00
2014,10,06,15,15,18.00
2014,10,06,15,16,18.00
2014,10,06,15,17,18.10
2014,10,06,15,18,18.10
2014,10,06,15,19,18.10
2014,10,06,15,20,18.10
2014,10,06,15,21,18.10
2014,10,06,15,22,18.00
2014,10,06,15,23,18.00
2014,10,06,15,24,18.00
2014,10,06,15,25,18.00
2014,10,06,15,26,18.10
2014,10,06,15,27,18.10
2014,10,06,15,28,18.10
2014,10,06,15,29,18.20
2014,10,06,15,30,18.20
2014,10,06,15,31,18.30
2014,10,06,15,32,18.30
2014,10,06,15,33,18.40
2014,10,06,15,34,18.40
2014,10,06,15,35,18.40
2014,10,06,15,36,18.40
2014,10,06,15,37,18.40
2014,10,06,15,38,18.40
2014,10,06,15,39,18.30
2014,10,06,15,40,18.30
2014,10,06,15,41,18.30
2014,10,06,15,42,18.20
2014,10,06,15,43,18.20
2014,10,06,15,44,18.10
2014,10,06,15,45,18.00
2014,10,06,15,46,18.00
2014,10,06,15,47,17.90
2014,10,06,15,48,17.90
2014,10,06,15,49,17.80
2014,10,06,15,50,17.80
2014,10,06,15,51,17.80
2014,10,06,15,52,17.80
2014,10,06,15,53,17.80
2014,10,06,15,54,17.90
2014,10,06,15,55,17.90
2014,10,06,15,56,17.90
2014,10,06,15,57,18.00
2014,10,06,15,58,18.00
2014,10,06,15,59,18.00
2014,10,06,16,00,18.00
2014,10,06,16,01,18.00
2014,10,06,16,02,18.10
2014,10,06,16,03,18.00
2014,10,06,16,04,18.00
2014,10,06,16,05,17.90
2014,10,06,16,06,17.90
2014,10,06,16,07,17.90
2014,10,06,16,08,17.90
2014,10,06,16,09,17.90
2014,10,06,16,10,17.90
2014,10,06,16,11,17.90
2014,10,06,16,12,18.00
2014,10,06,16,13,18.00
2014,10,06,16,14,18.00
2014,10,06,16,15,18.00
2014,10,06,16,16,18.00
2014,10,06,16,17,18.00
2014,10,06,16,18,17.90
2014,10,06,16,19,17.90
2014,10,06,16,20,17.80
2014,10,06,16,21,17.80
2014,10,06,16,22,17.80
2014,10,06,16,23,17.80
2014,10,06,16,24,17.80
2014,10,06,16,25,17.80
2014,10,06,16,26,17.80
2014,10,06,16,27,17.80
2014,10,06,16,28,17.80
2014,10,06,16,29,17.80
2014,10,06,16,30,17.80
2014,10,06,16,31,17.80
2014,10,06,16,32,17.80
2014,10,06,16,33,17.80
2014,10,06,16,34,17.80
2014,10,06,16,35,17.80
2014,10,06,16,36,17.80
2014,10,06,16,37,17.80
2014,10,06,16,38,17.80
2014,10,06,16,39,17.80
2014,10,06,16,40,17.80
2014,10,06,16,41,17.80
2014,10,06,16,42,17.80
2014,10,06,16,43,17.80
2014,10,06,16,44,17.70
2014,10,06,16,45,17.70
2014,10,06,16,46,17.60
2014,10,06,16,47,17.60
2014,10,06,16,48,17.70
2014,10,06,16,49,17.70
2014,10,06,16,50,17.70
2014,10,06,16,51,17.70
2014,10,06,16,52,17.70
2014,10,06,16,53,17.60
2014,10,06,16,54,17.60
2014,10,06,16,55,17.70
2014,10,06,16,56,17.60
2014,10,06,16,57,17.60
2014,10,06,16,58,17.50
2014,10,06,16,59,17.50
2014,10,06,17,00,17.40
2014,10,06,17,01,17.40
2014,10,06,17,02,17.40
2014,10,06,17,03,17.50
2014,10,06,17,04,17.50
2014,10,06,17,05,17.50
2014,10,06,17,06,17.50
2014,10,06,17,07,17.50
2014,10,06,17,08,17.40
2014,10,06,17,09,17.40
2014,10,06,17,10,17.30
2014,10,06,17,11,17.30
2014,10,06,17,12,17.30
2014,10,06,17,13,17.30
2014,10,06,17,14,17.20
2014,10,06,17,15,17.20
2014,10,06,17,16,17.30
2014,10,06,17,17,17.30
2014,10,06,17,18,17.30
2014,10,06,17,19,17.30